Location: Unspecified
(0.0000°N, 0.0000°E)
Time: 11:31:43
(UTC+00:00)

Vanguard 2 - Pass Details

Date: 25 November 2019
Orbit: 553 x 2938 km, 32.9° (Epoch: 07 December)

Event Time Altitude Azimuth Distance (km) Brightness Sun altitude
Rises 23:18:19 0° 214° (SW) 5,301 12.1 -68.0°
Reaches altitude 10° 23:22:15 10° 203° (SSW) 4,644 11.7 -68.3°
Enters shadow 23:27:31 23° 181° (S) 4,079 11.2 -68.6°
Exits shadow 23:47:22 11° 95° (E) 5,672 11.9 -69.2°
Drops below altitude 10° 23:47:55 10° 94° (E) 5,767 11.9 -69.2°
Sets 23:53:27 0° 84° (E) 6,753 12.3 -69.1°
